FW2460 Weather Reports


time (UTC)temp
F
wind
direction
speed
knots
gust
knots
rain 1hr
in
rain 24hr
in
rain mn
in
humidity
%
barometer
mb
20260906211557 92 135 12.2 20.9 0.00 0.00 0.00 21 1009.8
20260906210104 93 117 16.5 28.7 0.00 0.00 0.00 21 1009.9
20260906204600 93 157 15.6 21.7 0.00 0.00 0.00 21 1010.2
20260906203051 93 155 15.6 24.3 0.00 0.00 0.00 22 1010.3
20260906201551 92 184 7.8 24.3 0.00 0.00 0.00 21 1010.3
20260906200047 92 166 8.7 22.6 0.00 0.00 0.00 20 1010.5
20260906194601 93 151 12.2 24.3 0.00 0.00 0.00 19 1010.7
20260906193044 93 132 15.6 24.3 0.00 0.00 0.00 19 1011.1
20260906191545 92 170 12.2 19.1 0.00 0.00 0.00 20 1011.1
20260906190040 92 163 10.4 20.0 0.00 0.00 0.00 21 1011.2
20260906184539 90 143 13.9 21.7 0.00 0.00 0.00 23 1011.3
20260906183056 91 146 14.8 21.7 0.00 0.00 0.00 23 1012.0
20260906181542 90 157 8.7 26.1 0.00 0.00 0.00 23 1012.1
20260906180050 90 115 8.7 18.2 0.00 0.00 0.00 23 1012.1
20260906174530 90 192 7.8 16.5 0.00 0.00 0.00 24 1012.3
20260906173029 90 125 15.6 21.7 0.00 0.00 0.00 26 1012.4
20260906171527 89 181 12.2 21.7 0.00 0.00 0.00 26 1012.4
20260906170024 88 155 7.8 14.8 0.00 0.00 0.00 28 1012.6
20260906164521 88 163 9.6 27.8 0.00 0.00 0.00 28 1012.7
20260906163019 87 203 3.5 14.8 0.00 0.00 0.00 30 1013.0
20260906161535 87 14 3.5 16.5 0.00 0.00 0.00 31 1012.8
20260906160016 87 216 4.3 10.4 0.00 0.00 0.00 33 1012.7
20260906154513 85 248 3.5 10.4 0.00 0.00 0.00 35 1012.7
20260906153011 85 238 6.1 11.3 0.00 0.00 0.00 36 1012.5
20260906151508 84 238 7.0 9.6 0.00 0.00 0.00 37 1012.5
20260906150003 83 195 4.3 8.7 0.00 0.00 0.00 39 1012.5
20260906144600 82 215 5.2 10.4 0.00 0.00 0.00 41 1012.4
20260906143058 82 205 7.0 9.6 0.00 0.00 0.00 41 1012.5
20260906141617 80 251 6.1 11.3 0.00 0.00 0.00 42 1012.4
20260906140055 79 202 7.8 9.6 0.00 0.00 0.00 44 1012.2
20260906134553 78 197 5.2 7.8 0.00 0.00 0.00 45 1012.2
20260906133058 75 209 5.2 7.8 0.00 0.00 0.00 47 1012.0
20260906131601 74 189 6.1 8.7 0.00 0.00 0.00 48 1011.9
20260906130055 73 190 6.1 7.8 0.00 0.00 0.00 49 1011.8
20260906124546 72 195 5.2 7.0 0.00 0.00 0.00 50 1011.5
20260906123044 72 197 5.2 7.0 0.00 0.00 0.00 49 1011.3
20260906121542 72 181 5.2 7.0 0.00 0.00 0.00 48 1011.3
20260906120041 72 179 7.0 8.7 0.00 0.00 0.00 48 1011.3
20260906114546 72 203 5.2 7.8 0.00 0.00 0.00 48 1011.3
20260906113035 73 181 6.1 8.7 0.00 0.00 0.00 46 1011.2
20260906111541 73 188 6.1 7.8 0.00 0.00 0.00 46 1011.2
20260906110030 73 189 6.1 7.8 0.00 0.00 0.00 46 1011.1
20260906104532 74 182 6.1 7.8 0.00 0.00 0.00 46 1010.9
20260906103026 75 190 7.8 8.7 0.00 0.00 0.00 45 1010.7
20260906101529 75 184 7.0 8.7 0.00 0.00 0.00 44 1010.7
20260906100029 75 187 6.1 8.7 0.00 0.00 0.00 43 1010.9
20260906094518 76 171 6.1 8.7 0.00 0.00 0.00 43 1010.8
20260906093016 76 182 6.1 7.8 0.00 0.00 0.00 42 1010.8
20260906091513 76 200 6.1 8.7 0.00 0.00 0.00 41 1010.7
20260906090010 77 167 7.0 11.3 0.00 0.00 0.00 41 1010.6
20260906084511 77 161 7.8 9.6 0.00 0.00 0.00 40 1010.5
20260906083005 78 161 7.8 11.3 0.00 0.00 0.00 39 1010.5
20260906081502 78 170 9.6 12.2 0.00 0.00 0.00 38 1010.5
20260906080100 79 185 10.4 16.5 0.00 0.00 0.00 37 1010.6
20260906074557 79 193 11.3 19.1 0.00 0.00 0.00 37 1010.7
20260906073056 80 171 12.2 18.2 0.00 0.00 0.00 37 1010.4
20260906071554 80 178 13.0 18.2 0.00 0.00 0.00 36 1010.3
20260906070053 80 162 12.2 19.1 0.00 0.00 0.00 36 1010.3
20260906064551 80 153 13.9 19.1 0.00 0.00 0.00 36 1010.5
20260906063048 80 158 12.2 16.5 0.00 0.00 0.00 37 1010.6
20260906061549 80 161 10.4 16.5 0.00 0.00 0.00 37 1010.7
20260906060053 80 170 12.2 17.4 0.00 0.00 0.00 36 1010.8
20260906054546 80 148 12.2 16.5 0.00 0.00 0.00 36 1010.9
20260906053040 80 144 11.3 14.8 0.00 0.00 0.00 36 1010.9
20260906051539 80 139 11.3 14.8 0.00 0.00 0.00 37 1010.9
20260906050035 80 142 9.6 11.3 0.00 0.00 0.00 37 1010.9
20260906044535 81 142 9.6 11.3 0.00 0.00 0.00 36 1011.0
20260906043035 81 150 7.8 10.4 0.00 0.00 0.00 36 1011.1
20260906041535 82 153 7.8 10.4 0.00 0.00 0.00 35 1011.2
20260906040035 82 146 7.8 11.3 0.00 0.00 0.00 35 1011.0
20260906034551 82 138 9.6 12.2 0.00 0.00 0.00 34 1010.9
20260906033035 83 134 10.4 13.9 0.00 0.00 0.00 33 1011.1
20260906031534 84 139 10.4 14.8 0.00 0.00 0.00 32 1010.7
20260906030033 84 138 10.4 13.0 0.00 0.00 0.00 32 1010.6
20260906024531 84 140 9.6 11.3 0.00 0.00 0.00 32 1010.4
20260906023031 85 130 7.8 11.3 0.00 0.00 0.00 31 1010.2
20260906021538 86 128 9.6 12.2 0.00 0.00 0.00 30 1009.8
20260906020029 86 137 9.6 11.3 0.00 0.00 0.00 29 1009.5
20260906014528 87 132 10.4 12.2 0.00 0.00 0.00 28 1009.2
20260906013028 88 136 9.6 12.2 0.00 0.00 0.00 27 1009.1
20260906011528 89 137 11.3 14.8 0.00 0.00 0.00 25 1009.1
20260906010027 90 132 7.8 11.3 0.00 0.00 0.00 24 1008.9
20260906004525 91 140 13.9 17.4 0.00 0.00 0.00 23 1008.8
20260906003026 92 130 12.2 19.1 0.00 0.00 0.00 21 1008.6
20260906001541 93 142 13.0 18.2 0.00 0.00 0.00 20 1008.4
20260906000025 93 146 12.2 15.6 0.00 0.00 0.00 20 1008.3
20260905234523 94 147 13.9 20.0 0.00 0.00 0.00 20 1008.2
20260905233024 94 123 11.3 17.4 0.00 0.00 0.00 20 1008.0
20260905231527 95 165 12.2 20.0 0.00 0.00 0.00 19 1007.9
20260905230023 94 155 10.4 18.2 0.00 0.00 0.00 20 1007.8
20260905224524 95 99 13.0 18.2 0.00 0.00 0.00 19 1007.7
20260905223038 94 110 10.4 18.2 0.00 0.00 0.00 19 1007.8
20260905221522 95 172 10.4 17.4 0.00 0.00 0.00 19 1007.9
20260905220018 94 196 6.1 18.2 0.00 0.00 0.00 21 1008.0
20260905214516 95 175 5.2 11.3 0.00 0.00 0.00 21 1008.1